• In Deutschland
  • Länderverzeichnis
  • Für 7 Tage
  • Wassertemperatur
  • Satellitenkarten
  • Wetterkarte
  • Widgets
  • user-avatar
    Anmelden

    Stündliche Wetter Kutaissi

    Heute, 15 Dezember, Freitag

    Zeit Temperatur Niederschläge Wind Luftdruck Luftfeuchtigkeit
    00:00 +10°C° 0 mm 2 m/S 749 mmHg 53%
    01:00 +10°C° 0 mm 2 m/S 749 mmHg 53%
    02:00 +10°C° 0 mm 2 m/S 749 mmHg 54%
    03:00 +10°C° 0 mm 2 m/S 749 mmHg 54%
    04:00 +9°C° 0 mm 2 m/S 749 mmHg 55%
    05:00 +9°C° 0 mm 2 m/S 749 mmHg 55%
    06:00 +9°C° 0 mm 2 m/S 749 mmHg 55%
    07:00 +10°C° 0 mm 2 m/S 749 mmHg 55%
    08:00 +10°C° 0 mm 2 m/S 749 mmHg 55%
    09:00 +12°C° 0 mm 2 m/S 749 mmHg 55%
    10:00 +13°C° 0 mm 1 m/S 749 mmHg 51%
    11:00 +15°C° 0 mm 1 m/S 749 mmHg 48%
    12:00 +18°C° 0 mm 1 m/S 749 mmHg 44%
    13:00 +16°C° 0 mm 1 m/S 749 mmHg 47%
    14:00 +16°C° 0 mm 1 m/S 749 mmHg 50%
    15:00 +16°C° 0 mm 1 m/S 749 mmHg 52%
    16:00 +15°C° 0 mm 1 m/S 750 mmHg 55%
    17:00 +13°C° 0 mm 1 m/S 751 mmHg 58%
    18:00 +12°C° 0 mm 1 m/S 751 mmHg 61%
    19:00 +11°C° 0 mm 1 m/S 752 mmHg 61%
    20:00 +10°C° 0 mm 2 m/S 752 mmHg 61%
    21:00 +10°C° 0 mm 2 m/S 752 mmHg 61%
    22:00 +9°C° 0 mm 2 m/S 753 mmHg 61%
    23:00 +9°C° 0 mm 2 m/S 753 mmHg 60%

    Morgen, 16 Dezember, Samstag

    Zeit Temperatur Niederschläge Wind Luftdruck Luftfeuchtigkeit
    00:00 +9°C° 0 mm 2 m/S 753 mmHg 60%
    01:00 +9°C° 0 mm 2 m/S 753 mmHg 59%
    02:00 +9°C° 0 mm 2 m/S 753 mmHg 58%
    03:00 +9°C° 0 mm 2 m/S 753 mmHg 57%
    04:00 +9°C° 0 mm 2 m/S 753 mmHg 56%
    05:00 +9°C° 0 mm 2 m/S 753 mmHg 56%
    06:00 +9°C° 0 mm 2 m/S 753 mmHg 55%
    07:00 +9°C° 0 mm 2 m/S 753 mmHg 53%
    08:00 +10°C° 0 mm 2 m/S 753 mmHg 52%
    09:00 +12°C° 0 mm 2 m/S 753 mmHg 50%
    10:00 +14°C° 0 mm 2 m/S 752 mmHg 47%
    11:00 +16°C° 0 mm 2 m/S 751 mmHg 44%
    12:00 +17°C° 0 mm 2 m/S 751 mmHg 41%
    13:00 +17°C° 0 mm 2 m/S 750 mmHg 42%
    14:00 +17°C° 0 mm 2 m/S 750 mmHg 44%
    15:00 +17°C° 0 mm 2 m/S 750 mmHg 46%
    16:00 +15°C° 0 mm 2 m/S 751 mmHg 47%
    17:00 +14°C° 0 mm 2 m/S 751 mmHg 48%
    18:00 +12°C° 0 mm 3 m/S 752 mmHg 50%
    19:00 +11°C° 0 mm 3 m/S 752 mmHg 48%
    20:00 +11°C° 0 mm 3 m/S 752 mmHg 47%
    21:00 +11°C° 0 mm 3 m/S 752 mmHg 46%
    22:00 +10°C° 0 mm 3 m/S 752 mmHg 45%
    23:00 +10°C° 0 mm 3 m/S 752 mmHg 45%

    übermorgen, 17 Dezember, Sonntag

    Zeit Temperatur Niederschläge Wind Luftdruck Luftfeuchtigkeit
    00:00 +10°C° 0 mm 3 m/S 752 mmHg 44%
    01:00 +10°C° 0 mm 3 m/S 751 mmHg 44%
    02:00 +10°C° 0 mm 3 m/S 751 mmHg 44%
    03:00 +10°C° 0 mm 3 m/S 751 mmHg 44%
    04:00 +10°C° 0 mm 3 m/S 751 mmHg 44%
    05:00 +10°C° 0 mm 3 m/S 750 mmHg 44%
    06:00 +10°C° 0 mm 3 m/S 750 mmHg 44%
    07:00 +11°C° 0 mm 3 m/S 750 mmHg 44%
    08:00 +12°C° 0 mm 2 m/S 750 mmHg 44%
    09:00 +12°C° 0 mm 2 m/S 751 mmHg 45%
    10:00 +14°C° 0 mm 2 m/S 750 mmHg 43%
    11:00 +15°C° 0 mm 2 m/S 749 mmHg 42%
    12:00 +17°C° 0 mm 2 m/S 749 mmHg 41%
    13:00 +16°C° 0 mm 2 m/S 749 mmHg 43%
    14:00 +16°C° 0 mm 2 m/S 748 mmHg 45%
    15:00 +16°C° 0 mm 1 m/S 748 mmHg 48%
    16:00 +15°C° 0 mm 2 m/S 749 mmHg 49%
    17:00 +14°C° 0 mm 2 m/S 749 mmHg 51%
    18:00 +13°C° 0 mm 2 m/S 749 mmHg 52%
    19:00 +13°C° 0 mm 2 m/S 750 mmHg 52%
    20:00 +13°C° 0 mm 2 m/S 750 mmHg 52%
    21:00 +12°C° 0 mm 2 m/S 750 mmHg 51%
    22:00 +12°C° 0 mm 2 m/S 750 mmHg 51%
    23:00 +12°C° 0 mm 2 m/S 750 mmHg 52%

    18 Dezember, Montag

    Zeit Temperatur Niederschläge Wind Luftdruck Luftfeuchtigkeit
    00:00 +12°C° 0 mm 2 m/S 751 mmHg 52%
    01:00 +12°C° 0 mm 2 m/S 751 mmHg 52%
    02:00 +12°C° 0 mm 2 m/S 751 mmHg 52%
    03:00 +12°C° 0 mm 2 m/S 751 mmHg 52%
    04:00 +10°C° 0 mm 2 m/S 751 mmHg 53%
    05:00 +10°C° 0 mm 2 m/S 751 mmHg 54%
    06:00 +10°C° 0 mm 2 m/S 751 mmHg 54%
    07:00 +10°C° 0,2 mm 2 m/S 751 mmHg 56%
    08:00 +12°C° 0,2 mm 2 m/S 751 mmHg 58%
    09:00 +12°C° 0,2 mm 1 m/S 751 mmHg 60%
    10:00 +13°C° 0,2 mm 1 m/S 751 mmHg 59%
    11:00 +14°C° 0,2 mm 1 m/S 751 mmHg 59%
    12:00 +15°C° 0,2 mm 1 m/S 750 mmHg 58%
    13:00 +15°C° 0 mm 1 m/S 750 mmHg 59%
    14:00 +15°C° 0 mm 1 m/S 750 mmHg 60%
    15:00 +14°C° 0 mm 0 m/S 749 mmHg 61%
    16:00 +14°C° 0,1 mm 1 m/S 750 mmHg 64%
    17:00 +13°C° 0,1 mm 1 m/S 750 mmHg 66%
    18:00 +12°C° 0,1 mm 2 m/S 750 mmHg 69%
    19:00 +12°C° 0 mm 2 m/S 750 mmHg 69%
    20:00 +12°C° 0 mm 2 m/S 750 mmHg 69%
    21:00 +12°C° 0 mm 2 m/S 750 mmHg 68%
    22:00 +12°C° 0 mm 2 m/S 750 mmHg 68%
    23:00 +12°C° 0 mm 2 m/S 750 mmHg 68%

    19 Dezember, Dienstag

    Zeit Temperatur Niederschläge Wind Luftdruck Luftfeuchtigkeit
    00:00 +12°C° 0 mm 2 m/S 750 mmHg 69%
    01:00 +12°C° 0,1 mm 2 m/S 750 mmHg 69%
    02:00 +12°C° 0,1 mm 2 m/S 750 mmHg 69%
    03:00 +10°C° 0,1 mm 2 m/S 750 mmHg 69%
    04:00 +10°C° 0,1 mm 2 m/S 749 mmHg 69%
    05:00 +10°C° 0,1 mm 2 m/S 749 mmHg 70%
    06:00 +10°C° 0,1 mm 2 m/S 749 mmHg 70%
    07:00 +10°C° 0,5 mm 2 m/S 749 mmHg 70%
    08:00 +12°C° 0,5 mm 2 m/S 749 mmHg 71%
    09:00 +12°C° 0,5 mm 2 m/S 749 mmHg 71%
    10:00 +12°C° 0,8 mm 2 m/S 749 mmHg 72%
    11:00 +12°C° 0,8 mm 1 m/S 749 mmHg 72%
    12:00 +13°C° 0,8 mm 1 m/S 749 mmHg 73%
    13:00 +12°C° 1,1 mm 1 m/S 749 mmHg 78%
    14:00 +12°C° 1,1 mm 1 m/S 750 mmHg 82%
    15:00 +11°C° 1,1 mm 1 m/S 750 mmHg 87%
    16:00 +11°C° 2,1 mm 1 m/S 751 mmHg 90%
    17:00 +9°C° 2,1 mm 2 m/S 752 mmHg 92%
    18:00 +9°C° 2,1 mm 2 m/S 753 mmHg 95%
    19:00 +9°C° 1,3 mm 2 m/S 753 mmHg 95%
    20:00 +8°C° 1,3 mm 2 m/S 754 mmHg 95%
    21:00 +8°C° 1,3 mm 3 m/S 754 mmHg 95%
    22:00 +8°C° 0,4 mm 2 m/S 755 mmHg 95%
    23:00 +8°C° 0,4 mm 2 m/S 755 mmHg 95%

    20 Dezember, Mittwoch

    Zeit Temperatur Niederschläge Wind Luftdruck Luftfeuchtigkeit
    00:00 +8°C° 0,4 mm 1 m/S 755 mmHg 96%
    01:00 +8°C° 0,2 mm 1 m/S 755 mmHg 95%
    02:00 +8°C° 0,2 mm 1 m/S 755 mmHg 95%
    03:00 +7°C° 0,2 mm 0 m/S 756 mmHg 94%
    04:00 +8°C° 0 mm 1 m/S 756 mmHg 93%
    05:00 +7°C° 0 mm 1 m/S 755 mmHg 92%
    06:00 +7°C° 0 mm 1 m/S 755 mmHg 90%
    07:00 +7°C° 0 mm 1 m/S 755 mmHg 86%
    08:00 +8°C° 0 mm 1 m/S 755 mmHg 82%
    09:00 +8°C° 0 mm 1 m/S 755 mmHg 78%
    10:00 +10°C° 0 mm 1 m/S 754 mmHg 74%
    11:00 +11°C° 0 mm 1 m/S 754 mmHg 69%
    12:00 +12°C° 0 mm 1 m/S 753 mmHg 65%
    13:00 +12°C° 0 mm 1 m/S 753 mmHg 65%
    14:00 +12°C° 0 mm 1 m/S 753 mmHg 66%
    15:00 +13°C° 0 mm 1 m/S 753 mmHg 66%
    16:00 +12°C° 0 mm 2 m/S 753 mmHg 69%
    17:00 +10°C° 0 mm 2 m/S 753 mmHg 71%
    18:00 +9°C° 0 mm 2 m/S 754 mmHg 74%
    19:00 +9°C° 0,1 mm 2 m/S 754 mmHg 74%
    20:00 +9°C° 0,1 mm 2 m/S 754 mmHg 74%
    21:00 +8°C° 0,1 mm 2 m/S 754 mmHg 74%
    22:00 +8°C° 0,1 mm 2 m/S 754 mmHg 74%
    23:00 +8°C° 0,1 mm 2 m/S 754 mmHg 74%
    Mehr zeigen